SCP
0 0 0 0 0 0 0 0 0 0 0 0 0 0 0 0 0 0 0 -0 -0 0 -0 -0 -0 0 0 0 0 0 0 0 -0 0 0 0 0 0 0 0 0 0 0 0
0 0 0 0 0 0 0 0 0 0 0 0 0 0 0 -0 -0 0 -0 -0 -0 -0 -0 -0 -0 -0 0 -0 0 0 0 0 -0 0 0 0 0 0 0 0 0 0 0 0
0 0 0 0 0 0 0 0 0 0 0 0 0 0 0 0 0 0 -0 -0 -0 -0 -0 -0 -0 -0 -0 -0 0 -0 0 0 0 0 0 0 0 0 0 0 0 0 0 0
0 0 0 0 -0 -0 0 0 0 0 0 0 0 0 0 0 0 0 -0 -0 -0 -0 -0 -0 -0 -0 -0 0 -0 -0 -0 0 0 -0 -0 0 0 0 0 0 0 0 -0 0
0 0 0 0 0 -0 0 0 0 0 0 0 0 0 0 0 -0 0 -0 -0 -0 -0 -0 -0 0 -0 0 0 -0 0 -0 0 0 0 -0 0 0 0 0 0 0 -0 0 0
0 0 0 0 0 0 0 0 0 0 0 0 0 0 0 0 0 0 -0 -0 -0 -0 0 0 0 -0 -0 -0 -0 -0 0 -0 0 -0 -0 0 0 0 0 0 0 0 0 0
0 0 0 0 0 0 0 0 0 0 0 0 0 0 0 0 0 0 -0 -0 0 -0 0 -0 -0 -0 -0 -0 -0 -0 -0 0 0 -0 -0 0 0 0 0 0 0 0 0 0
0 0 0 0 0 0 0 0 0 0 0 0 0 0 0 0 0 0 -0 -0 -0 0 0 -0 0 0 -0 -0 -0 -0 0 0 0 0 -0 0 0 0 0 0 0 0 0 0
0 0 0 0 0 0 0 0 0 0 0 0 0 0 0 0 0 0 -0 -0 0 0 0 0 -0 0 -0 -0 -0 0 -0 -0 -0 -0 -0 0 0 0 0 0 0 0 0 0
0 0 0 0 0 0 0 0 0 0 0 0 0 0 0 0 0 0 -0 0 -0 -0 0 0 0 0 0 -0 0 0 -0 -0 -0 -0 -0 0 0 0 0 0 0 0 0 0
0 0 0 0 0 0 0 0 0 0 0 0 0 0 0 0 0 0 0 0 -0 0 0 -0 0 -0 0 0 0 0 0 0 -0 -0 -0 0 0 0 0 0 0 0 0 0
0 0 0 0 0 0 0 0 0 0 0 0 0 0 0 0 0 0 0 0 0 0 0 -0 -0 0 -0 0 0 -0 0 0 0 0 0 0 0 0 0 0 0 0 0 0
0 0 0 0 0 0 0 0 0 0 0 0 0 0 0 0 0 0 0 0 0 0 0 0 -0 -0 0 0 -0 0 0 0 0 0 0 0 0 0 0 0 0 0 0 0
0 0 0 0 0 0 0 0 0 0 0 0 0 0 0 0 0 0 0 0 0 0 0 0 0 -0 -0 -0 0 -0 0 0 0 0 0 0 0 0 0 0 0 0 0 0
0 -0 -0 -0 0 0 0 0 0 0 0 0 0 0 0 0 0 0 0 0 0 0 -0 0 -0 0 0 0 -0 -0 -0 0 0 0 0 0 0 0 0 0 0 0 0 0
0 -0 -0 -0 0 0 0 0 0 0 0 0 0 -0 0 0 0 0 0 0 0 0 0 -0 -0 0 0 0 -0 0 -0 -0 -0 0 0 0 0 0 0 0 0 0 0 0
0 0 0 -0 0 0 0 0 0 0 0 0 0 0 0 0 0 0 0 0 0 0 0 0 0 -0 0 -0 -0 -0 0 0 -0 -0 0 0 0 0 0 0 0 0 0 0
0 0 0 -0 0 0 0 0 0 0 0 0 0 0 0 0 0 0 0 0 0 0 0 0 0 -0 -0 -0 -0 -0 -0 -0 0 0 0 0 0 0 0 0 0 0 0 0
0 0 0 0 0 0 0 0 0 0 0 0 0 0 0 0 0 0 0 0 0 0 0 0 0 -0 -0 -0 -0 -0 0 -0 0 0 0 0 0 0 0 0 0 0 0 0
0 0 0 0 0 0 0 0 0 0 0 0 0 -0 0 0 0 0 0 0 0 0 0 0 0 0 0 0 0 -0 0 -0 -0 -0 0 0 0 0 0 0 0 0 0 0
0 0 0 0 0 0 0 0 0 0 0 0 0 0 0 0 0 0 0 0 0 0 0 0 0 0 0 0 0 -0 0 0 -0 -0 -0 0 0 0 0 0 0 0 0 0
0 0 0 0 0 0 0 0 0 0 0 0 0 0 0 0 0 -0 0 0 0 0 0 0 0 0 0 0 0 0 -0 -0 0 0 -0 -0 0 0 0 0 0 0 0 0
0 0 0 0 0 0 0 0 0 0 0 0 0 0 0 0 0 0 0 0 0 0 -0 0 0 0 0 0 0 0 0 -0 -0 -0 -0 -0 -0 -0 -0 0 0 0 0 0
0 0 0 0 0 0 0 0 -0 0 0 0 0 0 0 0 0 0 0 0 0 0 0 0 0 0 0 0 0 -0 0 -0 0 -0 -0 0 -0 0 -0 -0 -0 0 0 0
0 0 0 0 0 -0 0 0 0 0 0 0 0 0 0 0 0 0 0 0 0 -0 0 -0 0 0 0 0 0 0 0 -0 -0 0 -0 -0 -0 -0 -0 -0 -0 0 0 0
0 0 0 0 0 0 0 0 0 0 0 0 0 0 0 0 0 0 0 0 0 0 0 -0 0 0 0 0 0 0 0 0 -0 -0 0 -0 0 -0 -0 -0 -0 -0 0 0
0 0 0 0 -0 -0 -0 -0 0 0 0 0 0 0 0 0 0 0 0 0 0 0 0 0 0 0 0 0 0 0 0 0 0 0 0 0 0 -0 -0 -0 -0 -0 -0 -0
Wind_Speed_500mb
53 58 61 58 52 52 29 15 11 11 8 11 12 18 41 47 34 41 29 30 39 20 44 38 38 27 15 15 19 19 32 14 33 45 54 51 58 50 45 30 48 34 27 31
51 59 62 56 42 42 38 19 30 3 3 7 17 36 35 43 37 32 40 33 35 19 29 15 26 19 12 11 11 5 12 13 19 41 37 41 53 57 49 42 26 38 34 27
47 56 62 58 38 28 28 17 12 12 23 14 18 34 32 36 46 26 33 35 35 30 30 34 18 25 9 16 24 23 5 13 32 22 18 33 26 57 62 48 38 36 38 5
49 52 59 59 40 18 17 12 12 15 14 25 23 26 35 38 33 30 44 21 31 36 32 39 34 21 28 18 3 6 5 15 35 39 21 28 45 53 62 55 49 43 42 21
55 48 54 57 43 21 13 21 16 25 42 36 27 25 29 37 40 37 30 25 36 36 36 34 36 38 28 18 16 12 15 9 36 34 24 31 48 54 46 59 54 53 51 29
57 52 46 54 47 24 12 20 23 14 26 31 24 15 35 39 38 22 42 38 37 32 30 49 55 59 50 41 37 28 23 15 15 23 13 17 33 47 44 52 47 54 35 20
55 53 43 50 44 25 18 24 28 16 20 24 28 32 27 41 46 31 48 36 25 31 54 57 58 56 51 39 38 36 27 22 7 7 20 10 19 27 43 47 46 43 16 26
54 52 44 45 48 34 24 21 23 9 15 42 28 42 35 42 46 38 42 38 40 49 42 26 20 18 24 34 42 34 22 15 9 3 8 31 23 23 25 22 15 38 35 38
51 53 49 48 45 46 31 22 32 18 16 11 51 38 48 25 27 26 44 45 50 27 7 12 16 6 7 7 17 23 20 12 7 2 5 11 16 40 65 32 21 33 31 31
50 51 51 51 48 43 38 32 25 29 20 45 41 38 26 28 20 14 44 44 32 22 12 5 7 8 9 11 14 10 5 5 9 6 2 14 36 57 60 6 6 20 35 32
50 51 54 51 46 46 46 41 24 32 22 65 39 31 48 47 30 7 22 25 17 9 13 8 9 8 10 7 8 9 7 9 2 6 7 9 45 32 18 15 10 27 30 28
51 52 52 52 48 51 44 40 16 31 42 70 74 51 47 38 28 23 3 9 23 9 6 8 8 5 6 11 5 15 7 8 7 11 5 14 37 22 41 39 37 34 32 29
50 51 53 55 50 55 42 36 25 24 27 52 33 19 13 15 16 18 8 7 7 9 16 6 4 8 5 7 7 7 13 29 7 3 9 21 31 39 37 42 44 41 27 27
50 51 54 55 58 52 38 29 14 28 19 11 22 4 20 9 16 7 4 11 17 18 17 10 8 7 13 5 3 7 6 11 16 7 16 21 25 44 39 24 29 30 26 23
50 51 56 57 61 49 39 30 26 29 21 13 42 47 20 16 18 14 18 12 16 11 9 9 7 7 9 6 3 6 9 10 4 2 15 13 20 30 26 23 18 17 17 20
49 48 56 58 54 36 6 9 5 25 25 14 9 18 13 16 16 18 22 21 16 15 12 17 16 13 12 6 4 23 27 25 25 17 20 20 18 15 19 21 18 14 15 15
47 48 55 56 40 20 13 3 7 17 16 8 12 10 8 20 10 11 14 20 24 18 18 6 11 16 16 6 7 32 27 26 26 29 30 30 21 23 24 19 18 19 13 17
42 45 51 38 14 8 14 18 17 17 15 11 7 10 4 8 6 7 7 12 14 14 12 11 8 7 10 2 15 24 26 26 16 26 18 20 25 28 26 18 16 20 18 16
40 35 34 14 6 6 15 22 15 14 14 8 10 12 5 8 11 7 11 9 6 6 5 2 3 6 6 7 14 14 17 7 19 27 19 19 24 25 26 31 29 20 21 19
26 20 8 8 1 9 15 7 8 8 11 15 14 39 12 11 1 3 7 6 6 3 6 12 3 2 7 8 10 12 27 16 11 31 27 23 22 21 23 27 32 32 32 31
18 11 8 9 17 10 9 8 11 16 10 18 23 39 15 4 7 1 6 6 7 4 6 5 6 5 5 10 9 5 17 22 18 9 22 20 23 22 20 22 27 29 30 29
25 27 38 23 8 13 6 8 10 14 10 11 23 12 12 7 7 2 5 3 8 6 19 4 5 9 14 10 11 14 20 23 23 17 19 25 23 34 28 23 26 28 28 29
16 6 6 7 10 11 12 11 9 8 11 11 7 8 10 12 5 3 3 4 9 21 7 2 6 19 16 12 9 16 17 17 18 29 31 34 31 30 28 21 30 27 29 31
9 9 8 11 11 12 13 16 14 1 3 13 8 7 7 1 6 3 4 7 3 5 5 3 12 8 16 10 7 10 13 14 24 26 28 29 32 42 38 33 40 41 38 39
10 10 9 14 28 29 23 23 25 12 8 16 11 7 7 4 5 5 1 5 6 8 6 2 21 18 23 14 6 4 10 16 21 24 25 25 26 31 35 38 41 42 41 41
12 18 18 30 27 21 26 32 26 22 18 12 8 6 4 9 6 8 9 5 8 5 5 11 14 9 8 7 7 6 4 9 13 19 23 25 29 26 29 31 38 38 41 41
12 17 31 43 43 37 41 30 26 15 22 11 6 6 11 6 5 9 10 9 8 14 21 5 10 4 2 1 5 16 5 7 8 11 14 21 24 25 25 32 32 34 36 35
Wind_Direction_500mb
355 354 354 356 354 354 -0 301 277 186 346 291 268 296 332 319 320 325 314 315 319 0 306 306 295 242 9 239 327 303 295 279 258 267 273 217 232 224 230 218 219 236 246 248
353 354 354 354 357 353 349 302 296 209 297 328 321 315 319 320 335 343 325 323 311 318 299 320 319 339 173 227 274 289 344 244 260 258 267 259 229 221 233 237 240 218 235 242
347 352 355 353 359 351 343 302 310 355 333 328 306 321 318 317 327 328 319 309 312 310 325 288 271 333 276 248 297 268 337 259 263 253 314 339 284 211 230 227 211 227 227 194
347 347 353 356 355 1 339 286 338 357 300 324 312 305 292 315 335 340 330 316 325 325 311 310 322 310 312 314 249 237 205 269 288 257 256 304 302 284 224 223 203 222 235 162
351 345 348 352 354 360 331 335 340 330 302 307 306 313 319 323 328 327 315 319 317 312 310 310 315 309 297 289 271 243 219 282 301 281 215 273 288 275 266 220 200 221 240 159
349 346 345 350 353 357 329 337 324 308 292 305 327 320 325 313 329 307 308 307 314 305 309 311 303 294 285 280 277 263 280 302 320 249 197 321 276 236 240 211 204 213 227 162
346 348 344 349 347 342 303 308 314 294 294 312 325 334 317 320 322 316 314 324 307 310 319 308 295 273 260 250 253 256 262 285 270 10 61 266 242 244 251 206 197 209 164 164
341 344 338 344 347 332 309 295 293 284 288 310 310 335 333 320 320 315 312 328 332 325 324 315 311 317 240 232 230 231 227 257 275 206 200 295 324 0 337 261 81 14 40 74
336 337 337 332 334 338 315 295 291 267 287 305 324 319 313 324 324 321 326 325 328 327 310 320 310 286 280 306 316 254 174 222 231 62 255 223 20 350 319 298 100 11 40 51
335 338 335 332 331 331 317 294 265 276 268 283 317 310 313 317 307 291 310 340 322 10 330 309 321 350 312 354 317 330 144 231 263 274 225 294 339 330 309 350 79 39 49 45
328 333 334 334 332 329 324 305 255 261 267 289 288 309 298 302 305 290 321 326 13 10 356 343 352 329 352 303 320 359 333 336 338 241 224 340 324 340 52 310 355 48 53 48
322 327 329 332 329 328 321 300 309 270 256 278 292 283 279 277 284 300 287 284 302 336 327 6 311 315 297 313 23 358 11 22 339 7 31 287 310 15 22 9 32 40 37 35
318 324 324 328 324 326 316 291 264 277 283 305 306 252 269 251 257 282 191 248 287 301 342 307 284 288 291 331 37 345 345 7 23 15 357 325 325 13 21 22 13 12 27 28
314 320 321 324 325 320 309 282 271 250 275 281 305 311 317 217 221 270 262 278 280 286 290 244 251 242 207 328 85 38 8 353 346 1 1 353 360 342 344 11 8 5 11 15
312 316 320 320 324 316 299 279 252 237 232 299 304 303 273 228 233 244 280 279 279 282 271 228 265 284 354 101 237 45 3 13 13 46 295 308 320 312 324 351 349 354 354 357
308 314 317 317 321 314 337 293 295 217 235 289 301 319 237 229 247 243 235 232 241 242 270 295 306 358 333 17 45 11 6 358 339 315 325 293 307 323 323 329 322 348 335 352
305 314 313 316 311 275 223 356 135 181 207 260 275 278 227 222 253 248 246 229 240 260 294 274 304 330 351 34 358 344 340 346 338 336 349 346 344 318 323 333 324 335 344 7
312 315 312 318 301 218 242 250 225 207 244 244 268 268 222 185 254 273 249 221 221 232 244 277 322 358 21 81 335 322 326 352 351 344 319 305 329 357 4 348 337 331 345 4
321 317 309 294 204 224 234 242 249 216 243 275 241 259 280 187 259 278 261 244 235 267 255 240 54 11 39 315 336 350 353 348 328 346 353 0 4 0 359 359 353 344 340 341
338 328 282 209 183 305 302 323 190 215 208 226 257 265 260 277 102 310 282 270 256 229 236 112 60 250 214 248 317 353 346 307 3 17 15 15 16 11 358 360 355 360 359 350
348 318 291 314 308 308 227 235 212 184 221 218 242 245 242 238 326 168 264 292 291 254 216 201 139 150 91 98 76 57 35 30 23 18 22 22 17 10 18 7 359 356 349 337
297 285 281 291 251 223 226 234 214 201 232 172 246 166 260 113 62 29 293 278 309 262 334 188 171 128 124 84 60 64 56 32 21 39 60 48 44 31 40 23 7 357 356 352
304 290 262 240 227 231 222 212 234 223 201 242 208 208 189 166 115 141 295 279 251 335 286 274 127 157 126 103 60 36 37 29 20 57 41 42 48 48 38 33 19 22 13 1
254 228 237 225 213 229 214 247 265 293 300 301 270 263 156 57 140 117 253 243 254 277 253 187 131 178 136 117 76 37 2 22 26 43 41 25 45 44 46 52 34 35 24 16
265 232 244 235 238 267 276 251 268 275 262 275 296 296 259 167 175 213 261 270 262 229 244 163 165 140 140 145 143 65 1 23 15 22 38 33 31 46 45 43 40 35 31 27
244 235 257 268 277 270 255 246 244 253 257 233 251 257 227 217 195 177 205 240 230 252 254 275 149 113 85 116 166 135 23 14 14 8 25 29 30 36 40 39 38 35 31 28
242 248 249 262 277 286 289 289 295 248 230 222 203 230 226 193 221 195 178 209 238 239 241 235 340 105 107 155 189 169 146 101 50 30 17 19 23 37 36 36 34 37 35 36
Wind_Speed_850mb
53 58 61 58 52 52 29 15 11 11 8 11 12 18 41 47 34 41 29 30 39 20 44 38 38 27 15 15 19 19 32 14 33 45 54 51 58 50 45 30 48 34 27 31
51 59 62 56 42 42 38 19 30 3 3 7 17 36 35 43 37 32 40 33 35 19 29 15 26 19 12 11 11 5 12 13 19 41 37 41 53 57 49 42 26 38 34 27
47 56 62 58 38 28 28 17 12 12 23 14 18 34 32 36 46 26 33 35 35 30 30 34 18 25 9 16 24 23 5 13 32 22 18 33 26 57 62 48 38 36 38 5
49 52 59 59 40 18 17 12 12 15 14 25 23 26 35 38 33 30 44 21 31 36 32 39 34 21 28 18 3 6 5 15 35 39 21 28 45 53 62 55 49 43 42 21
55 48 54 57 43 21 13 21 16 25 42 36 27 25 29 37 40 37 30 25 36 36 36 34 36 38 28 18 16 12 15 9 36 34 24 31 48 54 46 59 54 53 51 29
57 52 46 54 47 24 12 20 23 14 26 31 24 15 35 39 38 22 42 38 37 32 30 49 55 59 50 41 37 28 23 15 15 23 13 17 33 47 44 52 47 54 35 20
55 53 43 50 44 25 18 24 28 16 20 24 28 32 27 41 46 31 48 36 25 31 54 57 58 56 51 39 38 36 27 22 7 7 20 10 19 27 43 47 46 43 16 26
54 52 44 45 48 34 24 21 23 9 15 42 28 42 35 42 46 38 42 38 40 49 42 26 20 18 24 34 42 34 22 15 9 3 8 31 23 23 25 22 15 38 35 38
51 53 49 48 45 46 31 22 32 18 16 11 51 38 48 25 27 26 44 45 50 27 7 12 16 6 7 7 17 23 20 12 7 2 5 11 16 40 65 32 21 33 31 31
50 51 51 51 48 43 38 32 25 29 20 45 41 38 26 28 20 14 44 44 32 22 12 5 7 8 9 11 14 10 5 5 9 6 2 14 36 57 60 6 6 20 35 32
50 51 54 51 46 46 46 41 24 32 22 65 39 31 48 47 30 7 22 25 17 9 13 8 9 8 10 7 8 9 7 9 2 6 7 9 45 32 18 15 10 27 30 28
51 52 52 52 48 51 44 40 16 31 42 70 74 51 47 38 28 23 3 9 23 9 6 8 8 5 6 11 5 15 7 8 7 11 5 14 37 22 41 39 37 34 32 29
50 51 53 55 50 55 42 36 25 24 27 52 33 19 13 15 16 18 8 7 7 9 16 6 4 8 5 7 7 7 13 29 7 3 9 21 31 39 37 42 44 41 27 27
50 51 54 55 58 52 38 29 14 28 19 11 22 4 20 9 16 7 4 11 17 18 17 10 8 7 13 5 3 7 6 11 16 7 16 21 25 44 39 24 29 30 26 23
50 51 56 57 61 49 39 30 26 29 21 13 42 47 20 16 18 14 18 12 16 11 9 9 7 7 9 6 3 6 9 10 4 2 15 13 20 30 26 23 18 17 17 20
49 48 56 58 54 36 6 9 5 25 25 14 9 18 13 16 16 18 22 21 16 15 12 17 16 13 12 6 4 23 27 25 25 17 20 20 18 15 19 21 18 14 15 15
47 48 55 56 40 20 13 3 7 17 16 8 12 10 8 20 10 11 14 20 24 18 18 6 11 16 16 6 7 32 27 26 26 29 30 30 21 23 24 19 18 19 13 17
42 45 51 38 14 8 14 18 17 17 15 11 7 10 4 8 6 7 7 12 14 14 12 11 8 7 10 2 15 24 26 26 16 26 18 20 25 28 26 18 16 20 18 16
40 35 34 14 6 6 15 22 15 14 14 8 10 12 5 8 11 7 11 9 6 6 5 2 3 6 6 7 14 14 17 7 19 27 19 19 24 25 26 31 29 20 21 19
26 20 8 8 1 9 15 7 8 8 11 15 14 39 12 11 1 3 7 6 6 3 6 12 3 2 7 8 10 12 27 16 11 31 27 23 22 21 23 27 32 32 32 31
18 11 8 9 17 10 9 8 11 16 10 18 23 39 15 4 7 1 6 6 7 4 6 5 6 5 5 10 9 5 17 22 18 9 22 20 23 22 20 22 27 29 30 29
25 27 38 23 8 13 6 8 10 14 10 11 23 12 12 7 7 2 5 3 8 6 19 4 5 9 14 10 11 14 20 23 23 17 19 25 23 34 28 23 26 28 28 29
16 6 6 7 10 11 12 11 9 8 11 11 7 8 10 12 5 3 3 4 9 21 7 2 6 19 16 12 9 16 17 17 18 29 31 34 31 30 28 21 30 27 29 31
9 9 8 11 11 12 13 16 14 1 3 13 8 7 7 1 6 3 4 7 3 5 5 3 12 8 16 10 7 10 13 14 24 26 28 29 32 42 38 33 40 41 38 39
10 10 9 14 28 29 23 23 25 12 8 16 11 7 7 4 5 5 1 5 6 8 6 2 21 18 23 14 6 4 10 16 21 24 25 25 26 31 35 38 41 42 41 41
12 18 18 30 27 21 26 32 26 22 18 12 8 6 4 9 6 8 9 5 8 5 5 11 14 9 8 7 7 6 4 9 13 19 23 25 29 26 29 31 38 38 41 41
12 17 31 43 43 37 41 30 26 15 22 11 6 6 11 6 5 9 10 9 8 14 21 5 10 4 2 1 5 16 5 7 8 11 14 21 24 25 25 32 32 34 36 35
Wind_Direction_850mb
355 354 354 356 354 354 -0 301 277 186 346 291 268 296 332 319 320 325 314 315 319 0 306 306 295 242 9 239 327 303 295 279 258 267 273 217 232 224 230 218 219 236 246 248
353 354 354 354 357 353 349 302 296 209 297 328 321 315 319 320 335 343 325 323 311 318 299 320 319 339 173 227 274 289 344 244 260 258 267 259 229 221 233 237 240 218 235 242
347 352 355 353 359 351 343 302 310 355 333 328 306 321 318 317 327 328 319 309 312 310 325 288 271 333 276 248 297 268 337 259 263 253 314 339 284 211 230 227 211 227 227 194
347 347 353 356 355 1 339 286 338 357 300 324 312 305 292 315 335 340 330 316 325 325 311 310 322 310 312 314 249 237 205 269 288 257 256 304 302 284 224 223 203 222 235 162
351 345 348 352 354 360 331 335 340 330 302 307 306 313 319 323 328 327 315 319 317 312 310 310 315 309 297 289 271 243 219 282 301 281 215 273 288 275 266 220 200 221 240 159
349 346 345 350 353 357 329 337 324 308 292 305 327 320 325 313 329 307 308 307 314 305 309 311 303 294 285 280 277 263 280 302 320 249 197 321 276 236 240 211 204 213 227 162
346 348 344 349 347 342 303 308 314 294 294 312 325 334 317 320 322 316 314 324 307 310 319 308 295 273 260 250 253 256 262 285 270 10 61 266 242 244 251 206 197 209 164 164
341 344 338 344 347 332 309 295 293 284 288 310 310 335 333 320 320 315 312 328 332 325 324 315 311 317 240 232 230 231 227 257 275 206 200 295 324 0 337 261 81 14 40 74
336 337 337 332 334 338 315 295 291 267 287 305 324 319 313 324 324 321 326 325 328 327 310 320 310 286 280 306 316 254 174 222 231 62 255 223 20 350 319 298 100 11 40 51
335 338 335 332 331 331 317 294 265 276 268 283 317 310 313 317 307 291 310 340 322 10 330 309 321 350 312 354 317 330 144 231 263 274 225 294 339 330 309 350 79 39 49 45
328 333 334 334 332 329 324 305 255 261 267 289 288 309 298 302 305 290 321 326 13 10 356 343 352 329 352 303 320 359 333 336 338 241 224 340 324 340 52 310 355 48 53 48
322 327 329 332 329 328 321 300 309 270 256 278 292 283 279 277 284 300 287 284 302 336 327 6 311 315 297 313 23 358 11 22 339 7 31 287 310 15 22 9 32 40 37 35
318 324 324 328 324 326 316 291 264 277 283 305 306 252 269 251 257 282 191 248 287 301 342 307 284 288 291 331 37 345 345 7 23 15 357 325 325 13 21 22 13 12 27 28
314 320 321 324 325 320 309 282 271 250 275 281 305 311 317 217 221 270 262 278 280 286 290 244 251 242 207 328 85 38 8 353 346 1 1 353 360 342 344 11 8 5 11 15
312 316 320 320 324 316 299 279 252 237 232 299 304 303 273 228 233 244 280 279 279 282 271 228 265 284 354 101 237 45 3 13 13 46 295 308 320 312 324 351 349 354 354 357
308 314 317 317 321 314 337 293 295 217 235 289 301 319 237 229 247 243 235 232 241 242 270 295 306 358 333 17 45 11 6 358 339 315 325 293 307 323 323 329 322 348 335 352
305 314 313 316 311 275 223 356 135 181 207 260 275 278 227 222 253 248 246 229 240 260 294 274 304 330 351 34 358 344 340 346 338 336 349 346 344 318 323 333 324 335 344 7
312 315 312 318 301 218 242 250 225 207 244 244 268 268 222 185 254 273 249 221 221 232 244 277 322 358 21 81 335 322 326 352 351 344 319 305 329 357 4 348 337 331 345 4
321 317 309 294 204 224 234 242 249 216 243 275 241 259 280 187 259 278 261 244 235 267 255 240 54 11 39 315 336 350 353 348 328 346 353 0 4 0 359 359 353 344 340 341
338 328 282 209 183 305 302 323 190 215 208 226 257 265 260 277 102 310 282 270 256 229 236 112 60 250 214 248 317 353 346 307 3 17 15 15 16 11 358 360 355 360 359 350
348 318 291 314 308 308 227 235 212 184 221 218 242 245 242 238 326 168 264 292 291 254 216 201 139 150 91 98 76 57 35 30 23 18 22 22 17 10 18 7 359 356 349 337
297 285 281 291 251 223 226 234 214 201 232 172 246 166 260 113 62 29 293 278 309 262 334 188 171 128 124 84 60 64 56 32 21 39 60 48 44 31 40 23 7 357 356 352
304 290 262 240 227 231 222 212 234 223 201 242 208 208 189 166 115 141 295 279 251 335 286 274 127 157 126 103 60 36 37 29 20 57 41 42 48 48 38 33 19 22 13 1
254 228 237 225 213 229 214 247 265 293 300 301 270 263 156 57 140 117 253 243 254 277 253 187 131 178 136 117 76 37 2 22 26 43 41 25 45 44 46 52 34 35 24 16
265 232 244 235 238 267 276 251 268 275 262 275 296 296 259 167 175 213 261 270 262 229 244 163 165 140 140 145 143 65 1 23 15 22 38 33 31 46 45 43 40 35 31 27
244 235 257 268 277 270 255 246 244 253 257 233 251 257 227 217 195 177 205 240 230 252 254 275 149 113 85 116 166 135 23 14 14 8 25 29 30 36 40 39 38 35 31 28
242 248 249 262 277 286 289 289 295 248 230 222 203 230 226 193 221 195 178 209 238 239 241 235 340 105 107 155 189 169 146 101 50 30 17 19 23 37 36 36 34 37 35 36